CAPE
0 0 0 0 0 0 0 0 0 548 738 521 387 507 638 794 880 544 565 488 193 152 311 349 731 757 791 918 1077 1081 1107 913 698 492 389 344 234 193 293 262 102 39 0 0 0 0 0 0 0
0 0 0 0 0 0 0 1 846 828 627 378 320 307 259 778 1022 930 838 794 516 262 165 318 766 710 846 966 1041 952 1085 748 596 428 283 282 164 90 130 138 110 117 0 0 0 0 0 0 0
0 0 0 0 0 0 0 41 509 743 489 317 144 40 33 497 876 807 1046 806 758 252 163 576 749 512 604 819 800 835 962 773 578 418 213 73 26 1 0 215 200 56 0 0 0 0 19 62 253
0 0 0 0 0 0 0 122 821 592 465 225 122 5 0 0 566 909 869 750 739 623 330 429 362 327 528 584 888 1001 900 686 544 448 295 9 0 0 0 234 183 19 24 19 16 32 99 304 258
0 0 0 0 0 0 53 657 369 232 150 25 5 0 0 232 398 1056 817 776 528 160 152 223 166 370 537 575 1045 953 873 681 543 454 257 89 0 0 32 205 182 37 42 43 56 84 272 348 324
0 0 0 0 0 0 4 394 191 83 103 77 11 21 69 197 498 874 677 612 198 172 192 137 203 325 296 656 799 746 700 620 528 423 217 138 219 232 272 341 340 324 328 398 415 426 439 397 333
0 0 0 0 0 0 0 626 171 82 149 34 182 206 4 306 688 127 100 144 127 327 244 118 256 622 516 475 479 529 571 533 521 407 257 287 323 340 404 477 467 465 495 568 649 602 524 463 390
0 0 0 0 0 28 133 396 33 0 98 135 0 0 200 881 781 16 67 39 1 53 163 185 285 200 674 457 399 419 430 409 404 298 220 239 280 323 360 442 503 485 401 397 468 226 128 231 278
0 0 0 0 14 297 59 4 19 144 11 84 8 0 9 1270 1155 889 733 0 0 43 256 270 404 624 771 572 432 445 501 386 380 230 218 92 161 214 287 355 365 338 134 139 221 60 69 141 183
0 0 0 323 436 333 100 0 0 60 2 391 411 0 13 1125 1144 1150 1155 103 10 138 375 467 625 588 632 348 388 204 152 67 184 205 209 341 595 58 32 313 345 438 178 196 252 203 255 156 0
0 0 4 32 37 54 22 9 139 133 36 3 65 675 1296 1063 973 930 1072 805 453 478 602 668 698 791 636 387 305 86 193 304 679 631 761 717 780 671 523 477 541 385 251 220 157 134 53 17 0
0 0 0 29 0 14 87 159 0 0 0 0 32 784 1144 1111 1007 1046 603 616 664 691 702 710 636 420 227 86 53 150 347 609 639 801 675 793 888 701 480 239 52 61 109 133 131 58 22 0 0
0 0 0 0 0 12 23 12 0 0 0 4 77 776 1094 1104 1022 637 327 492 534 504 371 357 434 433 471 392 691 846 834 914 951 960 928 801 546 303 152 88 91 145 96 35 0 0 0 0 0
0 0 0 0 0 96 2 0 21 2 53 401 426 605 827 868 407 221 277 273 443 320 395 414 312 526 712 918 586 544 532 539 530 884 1031 781 555 312 130 64 0 1 0 0 0 0 0 0 0
0 0 0 0 0 35 21 16 58 244 355 320 221 260 284 355 198 280 254 274 417 405 341 252 400 1075 812 657 499 289 0 115 390 596 640 620 5 1 0 0 0 0 0 0 0 0 0 0 0
0 0 0 0 0 12 2 0 25 246 182 237 143 105 137 130 141 186 209 241 418 308 295 419 698 774 496 58 9 78 289 116 0 0 0 0 0 0 0 0 0 0 0 0 0 0 0 0 0
0 0 0 0 0 0 0 0 5 216 252 235 286 254 267 178 122 129 130 349 389 318 468 759 791 532 97 254 191 289 70 0 0 0 0 0 0 0 0 0 0 0 0 0 0 0 0 0 0
0 0 0 0 0 0 0 0 0 80 61 6 385 428 441 331 196 188 100 367 674 496 508 810 731 624 338 504 78 6 0 0 0 0 0 0 0 0 0 0 0 0 0 0 0 0 0 1 0
0 2 2 6 0 0 26 1 0 13 384 471 509 558 598 590 584 432 321 474 954 832 665 763 697 571 604 318 1 0 0 0 0 0 0 0 0 0 0 0 0 0 0 0 0 0 0 0 0
0 15 3 0 0 0 5 8 3 22 36 182 367 543 555 614 662 742 645 505 906 1010 873 884 688 657 682 182 44 59 0 0 0 0 0 0 0 0 0 0 0 0 0 0 0 0 0 0 0
0 16 16 7 0 0 62 46 4 12 56 99 154 327 517 628 867 886 708 935 1412 1058 1043 988 630 719 127 2 0 0 0 0 0 0 0 0 0 0 0 0 0 0 0 0 0 0 0 0 0
41 51 8 15 37 0 50 96 2 92 19 144 273 333 367 548 793 883 1055 1063 1416 996 997 788 620 5 0 0 0 0 0 0 0 0 0 0 0 0 0 0 0 0 0 0 0 0 0 0 0
23 21 36 44 73 148 80 69 91 1 151 174 359 515 608 716 814 1062 1149 1175 1152 806 1007 556 0 0 0 0 0 0 0 0 0 0 0 0 0 0 0 0 0 0 0 0 0 7 2 0 0
71 7 85 23 56 301 12 49 27 17 21 214 214 412 598 694 946 1066 1047 938 809 818 448 1 0 0 0 0 0 0 0 0 0 0 0 0 0 0 0 0 0 0 0 0 4 0 0 0 0
9 28 72 78 182 249 72 77 251 38 112 87 119 415 594 872 938 1014 1042 1030 656 222 3 0 0 0 0 0 0 0 0 0 0 0 0 0 0 0 0 0 0 0 0 0 0 0 0 0 0
52 1 168 8 0 52 36 38 18 213 159 98 340 552 854 986 1006 856 629 340 95 0 0 0 0 0 0 0 0 0 0 0 0 0 0 0 0 0 0 0 0 0 0 0 0 0 4 16 15
0 59 40 10 129 245 15 0 1 24 11 88 558 545 670 627 446 285 196 0 0 0 0 0 0 0 0 0 0 0 0 0 0 0 0 0 0 0 0 0 0 0 0 7 8 13 25 0 2
5 0 98 88 10 0 0 18 112 59 21 8 416 442 443 369 155 23 1 0 0 0 0 0 0 0 0 0 0 0 0 0 0 0 0 0 0 0 0 0 0 0 0 24 24 32 28 26 25
0 2 0 0 285 514 324 29 1 0 1 53 125 505 355 266 70 0 0 0 0 0 0 0 0 0 0 0 0 0 0 0 0 0 0 0 0 0 0 0 0 0 0 0 6 14 5 47 2
0 78 0 510 32 552 394 12 0 0 0 0 13 276 279 170 28 0 0 0 0 0 0 0 0 0 0 0 0 0 0 0 0 0 0 0 0 0 0 0 0 0 10 7 3 9 10 26 4
CIN
0 0 0 0 0 0 0 0 0 -10 -21 -42 -45 -19 -19 -20 -17 -26 -81 -58 -85 -117 -107 -60 -5 -4 -3 0 0 0 0 0 -2 -3 -12 -18 -42 -49 -20 -24 -68 -100 0 0 0 0 0 0 0
0 0 0 0 0 0 0 -19 -27 -53 -53 -73 -96 -42 -28 -2 -6 -2 0 -3 -17 -132 -144 -66 -5 -9 -6 -1 -1 -2 0 0 -1 -13 -36 -30 -69 -96 -78 -72 -76 -70 0 0 0 0 0 0 0
0 0 0 0 0 0 0 -11 -25 -58 -67 -93 -149 -93 -139 -1 -2 -4 -8 -21 -2 -26 -52 -7 -10 -25 -14 -5 -6 -5 0 0 -3 -18 -70 -130 -151 -12 0 -66 -71 -106 0 0 0 0 -90 -114 -76
0 0 0 0 0 0 0 -63 -3 0 -2 -24 -18 -41 0 -1 -6 -1 -35 -44 -7 -11 -49 -29 -48 -34 -19 -27 -6 0 0 -2 -13 -27 -52 -143 0 0 0 -68 -77 -132 -138 -140 -131 -124 -106 -71 -88
0 0 0 0 0 0 -1 -27 -156 -229 -106 -245 -92 0 0 -53 -14 0 -20 -12 -11 -61 -25 -22 -27 -19 -15 -12 -1 0 0 -2 -19 -29 -86 -148 0 0 -158 -83 -88 -128 -132 -122 -129 -119 -66 -54 -71
0 0 0 0 0 0 -4 -120 -291 -302 -121 -160 -85 -16 -3 -35 -1 -38 -52 -30 -22 -7 -3 -42 -12 -10 -1 -11 -8 -2 -3 -10 -26 -46 -119 -147 -108 -88 -74 -61 -62 -69 -66 -53 -47 -48 -49 -59 -71
0 0 0 0 0 -1 0 -59 -75 -118 -84 -118 -52 -108 -16 -1 -84 -189 -162 -101 -20 0 -1 -12 -5 -6 -19 -43 -26 -29 -29 -40 -39 -59 -99 -88 -86 -76 -59 -47 -48 -49 -44 -42 -40 -51 -69 -78 -73
0 0 0 0 0 -3 -154 -111 -269 0 -9 -63 0 -3 -45 -23 -76 -148 -139 -114 -4 -12 0 -3 -30 -2 -12 -38 -81 -72 -61 -63 -65 -113 -128 -121 -110 -96 -87 -81 -69 -67 -79 -78 -66 -92 -110 -103 -86
0 0 0 0 -1 -133 -426 -80 -106 -51 -31 -34 -49 0 -35 -16 -43 -6 0 0 0 -63 -5 -9 -16 -11 -17 -37 -63 -57 -58 -83 -93 -135 -139 -230 -143 -125 -108 -103 -97 -101 -123 -116 -92 -106 -110 -117 -110
0 0 0 -51 -39 -104 -265 0 -1 -10 -19 -18 -24 0 -59 -31 -12 0 0 -4 -129 -30 -7 -15 -27 -28 -36 -27 -52 -117 -127 -203 -145 -110 -139 -113 -26 -102 -28 -80 -93 -89 -138 -132 -78 -92 -107 -79 0
0 0 -2 -198 -265 -170 -22 -24 -21 -15 -111 -192 -146 -42 -3 -1 -7 -8 -2 -2 -11 -8 -17 -25 -43 -43 -14 -17 -43 -111 -69 -65 -22 -22 -12 -27 -17 -30 -33 -41 -42 -81 -131 -43 -78 -34 -52 -22 0
0 0 0 -121 -12 -184 -33 -31 0 0 0 0 -254 -22 -11 -1 -2 0 -3 0 -4 0 -2 -6 -5 -30 -73 -110 -112 -114 -28 -19 -30 -23 -13 -37 -26 -24 -53 -83 -135 -106 -77 -36 -18 -19 -61 0 0
0 0 0 0 0 -18 -34 -2 0 0 0 -89 -216 -1 -4 -1 0 -1 -1 -9 -14 -13 -24 -42 -42 -40 -33 -49 -24 -34 -41 -45 -17 -30 -34 -33 -43 -62 -95 -115 -79 -58 -59 -58 0 0 0 0 0
0 0 0 0 0 -5 -19 0 -2 -27 -45 -6 -1 -2 -3 0 -4 -4 -4 -18 -9 -31 -21 -44 -86 -27 -16 -27 -47 -58 -77 -84 -48 -27 -28 -28 -23 -64 -71 -100 0 -41 0 0 0 0 0 0 0
0 0 0 0 0 -4 -141 -17 -22 -7 -7 -3 -11 -3 0 -1 -7 -2 -17 -31 -24 -45 -74 -106 -88 -17 -32 -35 -50 -123 -16 -122 -46 -48 -70 -45 -16 -17 0 0 0 0 0 0 0 0 0 0 0
0 0 0 0 0 -7 -5 -2 -35 -9 -15 -2 -13 -19 -4 -7 -7 -20 -42 -32 -32 -76 -103 -71 -24 -25 -88 -225 -246 -210 -123 -137 0 0 0 0 0 0 0 0 0 0 0 0 0 0 0 0 0
0 0 0 0 -1 0 0 -1 -30 -3 -1 -2 -2 -5 -2 -16 -33 -46 -60 -18 -37 -97 -64 -11 -11 -73 -188 -140 -143 -77 -122 0 0 0 0 0 0 0 0 0 0 0 0 0 0 0 0 0 0
0 0 0 0 0 0 0 -2 0 -17 -276 -47 -3 -2 -4 -1 -20 -51 -75 -28 -18 -67 -48 -12 -11 -51 -100 -43 -124 -107 0 0 0 0 0 0 0 0 0 0 0 0 0 0 0 0 0 -7 -3
0 -3 -14 -4 0 0 -1 -6 0 -24 -18 -3 -5 -2 -4 0 -2 -33 -52 -33 -13 -27 -29 -11 -13 -39 -43 -28 -86 0 0 0 0 0 0 0 0 0 0 0 0 0 0 0 0 0 0 0 0
-3 -11 -17 0 0 0 -2 -9 -28 -22 -3 -2 -2 -16 -10 -3 -2 -11 -12 -34 -18 -14 -16 -12 -17 -15 -14 -28 -56 -46 0 0 0 0 0 0 0 0 0 0 0 0 0 0 0 0 0 0 0
-1 -7 -19 -5 0 0 -59 -9 -2 -27 -3 -2 -3 -2 -4 -4 -9 -17 -23 -13 -14 -26 -16 -9 -10 -7 -46 -66 0 0 0 0 0 0 0 0 0 0 0 0 0 0 0 0 0 0 -1 0 0
-6 -33 -6 -21 -28 0 -47 -6 -87 -54 -10 -6 -2 -3 -5 -3 -16 -26 -17 -11 -36 -37 -23 -11 -7 -24 -27 0 0 0 0 0 0 0 0 0 0 0 0 0 0 0 0 0 0 0 0 0 0
-22 -47 -20 -1 -2 -8 -23 -31 -82 -55 -41 -20 -16 -19 -9 -11 -27 -19 -20 -40 -34 -44 -16 -31 0 0 0 0 0 0 0 0 0 0 0 0 0 0 0 0 0 0 0 0 0 -10 -31 0 0
-20 -14 -13 -2 -2 -37 -40 -47 -80 -84 -87 -57 -30 -32 -30 -48 -23 -7 -46 -39 -18 -13 -52 -166 0 0 0 0 0 0 0 0 0 0 0 0 0 0 0 0 0 0 0 0 -12 0 0 0 0
-5 -2 -2 -21 -30 -13 -3 -36 -69 -194 -120 -253 -324 -54 -42 -14 -16 -5 -35 -9 -18 -109 -115 0 0 0 0 0 0 0 0 0 0 0 0 0 0 0 0 0 0 0 0 0 0 0 0 0 0
-5 0 -9 -29 0 -55 -19 -44 -9 -39 -90 -310 -99 -41 -25 -3 -4 -7 -10 -62 -175 -21 0 0 0 0 0 0 0 0 0 0 0 0 0 0 0 0 0 0 0 0 0 0 0 0 -18 -12 -10
0 -1 -3 -8 -82 -3 -12 0 -1 -25 -34 -27 -14 -36 -57 -43 -47 -57 -92 0 0 0 0 0 0 0 0 0 0 0 0 0 0 0 0 0 0 0 0 0 0 0 -2 -11 -19 -22 -10 -3 -41
-15 0 -4 -7 -1 0 0 -14 0 -13 -42 -69 -12 -48 -56 -76 -130 -189 -45 0 0 0 0 0 0 0 0 0 0 0 0 0 0 0 0 0 0 0 0 0 0 0 -1 -8 -10 -7 -2 -4 -18
0 -14 0 0 -4 -4 -5 -6 -13 0 -21 -49 -44 -16 -57 -93 -172 0 0 0 0 0 0 0 0 0 0 0 0 0 0 0 0 0 0 0 0 0 0 0 0 0 0 -2 -10 -9 -12 -11 -26
0 -5 0 -17 -24 -19 -32 -21 0 0 0 0 -75 -15 -45 -110 -188 0 0 0 0 0 0 0 0 0 0 0 0 0 0 0 0 0 0 0 0 0 0 0 0 0 -5 -12 -16 -9 -9 -22 -65
Wind_Speed
7 10 10 10 7 8 15 19 23 6 7 6 7 13 14 12 6 3 3 13 22 17 17 18 16 16 16 16 16 16 16 16 16 16 15 15 16 16 15 15 14 14 15 15 15 15 16 15 14
12 15 10 7 8 12 15 20 18 13 15 14 15 11 13 13 13 14 13 19 18 19 16 17 15 15 16 16 16 16 17 17 16 16 16 16 16 15 15 14 13 13 14 15 15 15 14 14 14
11 15 7 7 13 15 17 11 8 14 10 13 9 10 5 8 13 7 17 9 18 17 15 15 15 15 15 16 15 17 17 17 16 16 16 16 16 15 15 12 13 14 15 15 15 14 14 14 13
7 6 7 9 18 20 21 8 16 12 11 13 13 6 5 7 9 10 20 11 15 12 16 13 13 14 15 17 18 19 17 16 17 16 14 15 14 13 13 11 13 15 15 14 14 14 14 12 11
9 7 10 13 17 23 5 18 14 16 11 14 20 7 7 9 15 13 14 14 16 13 12 12 10 11 13 16 20 18 16 16 16 14 13 13 13 11 11 11 12 14 13 13 11 12 9 8 9
7 8 12 14 20 21 8 25 25 15 10 6 3 10 7 13 15 17 15 16 14 14 13 13 8 8 16 17 20 16 15 15 14 13 12 12 11 9 10 10 10 10 10 8 8 7 6 6 7
13 12 15 19 20 6 5 27 22 21 16 14 5 6 7 12 22 19 15 12 14 8 10 13 11 8 14 17 18 15 13 13 12 11 11 10 9 8 8 9 9 9 8 6 7 6 6 7 7
12 13 21 18 17 10 19 16 13 8 12 16 18 9 6 14 22 17 12 15 12 6 8 13 11 4 10 10 16 14 13 12 11 10 9 9 9 10 10 10 8 6 5 4 5 6 7 9 7
16 12 14 20 20 9 13 14 8 16 4 9 7 8 4 23 22 17 16 16 12 4 6 12 13 11 9 8 11 12 13 12 10 8 9 7 5 6 8 7 8 6 3 2 4 6 7 9 11
13 11 17 17 15 10 14 15 26 6 14 6 8 16 14 21 17 16 15 21 15 13 14 12 11 11 9 9 8 8 8 6 6 6 6 6 2 3 2 5 8 7 6 7 6 8 7 4 4
15 16 9 13 13 21 20 23 10 5 7 9 16 22 18 15 14 16 16 20 18 14 10 10 6 7 8 8 6 4 4 3 3 3 2 3 4 2 1 1 1 3 6 1 4 2 2 3 2
13 16 12 8 11 12 6 20 11 14 5 30 25 12 19 16 14 15 13 18 16 13 14 11 9 6 7 4 4 5 4 3 3 4 1 4 3 5 5 4 5 4 4 5 3 3 6 7 7
13 17 1 4 13 7 19 8 16 13 13 19 21 18 20 15 15 12 16 16 14 12 9 12 9 5 5 6 6 6 4 4 4 5 5 5 5 3 2 2 2 3 4 5 6 5 6 6 7
8 12 6 6 7 17 11 4 12 16 13 14 14 15 17 16 17 13 16 15 16 14 12 11 10 5 6 7 8 4 5 5 3 3 5 2 2 4 2 3 4 4 5 5 5 6 5 5 5
2 9 2 2 4 5 15 12 11 16 16 17 17 13 12 13 16 12 13 12 15 13 13 11 9 8 10 7 5 6 5 1 5 5 7 8 8 5 5 3 3 4 5 6 5 5 4 3 5
10 10 7 6 10 5 7 13 12 19 15 15 17 13 12 13 13 11 12 11 14 14 13 11 10 11 8 8 6 1 3 5 4 4 4 5 5 3 2 3 4 5 3 2 0 3 4 5 5
10 8 6 7 17 6 9 16 15 16 17 16 15 15 14 13 13 13 13 13 16 15 13 11 11 11 7 5 5 5 6 5 4 5 4 5 5 5 4 4 5 5 5 4 4 4 4 4 5
7 6 15 14 13 9 15 16 13 13 28 26 16 15 14 12 13 14 13 13 16 15 12 11 8 9 7 5 5 5 4 4 4 5 5 6 5 7 6 3 3 2 3 4 4 4 3 3 3
9 16 16 15 10 10 13 14 16 14 19 17 12 14 13 11 11 12 11 11 14 15 13 12 11 9 8 7 7 5 5 5 6 5 6 7 5 5 3 5 5 5 5 4 5 4 4 4 4
14 13 9 10 6 10 10 13 16 13 13 12 14 17 16 16 15 12 10 13 14 15 13 12 12 10 7 5 4 3 6 5 6 5 5 6 6 6 5 4 4 5 4 5 4 5 4 2 4
14 3 7 7 8 6 8 1 12 15 11 12 13 12 15 17 15 12 11 8 8 11 12 11 7 10 5 9 6 4 6 4 4 4 4 4 5 5 5 5 4 4 3 3 4 4 5 3 4
8 14 5 8 7 10 13 6 11 16 14 13 14 13 13 15 14 13 11 11 8 7 8 10 11 11 6 4 6 7 4 6 4 5 5 5 7 7 7 6 6 6 5 5 4 4 2 3 3
8 15 9 12 11 2 13 6 7 13 13 15 11 11 12 13 14 15 15 10 6 8 8 7 11 9 6 6 7 6 7 5 5 5 5 5 5 5 5 6 7 6 4 5 5 5 6 5 5
8 9 15 10 9 2 9 10 7 13 23 5 12 9 9 12 13 14 16 15 14 11 9 9 11 8 7 8 9 9 8 7 6 3 3 4 3 3 5 6 5 5 5 5 4 7 7 5 4
9 9 7 4 6 7 13 10 9 20 14 15 21 16 13 11 13 15 19 16 13 12 10 9 11 10 9 9 9 8 8 7 8 3 3 2 3 3 4 4 4 4 5 6 5 4 3 3 2
15 10 4 7 4 10 5 4 5 16 25 30 26 15 14 13 11 11 14 13 12 11 10 10 12 12 11 9 8 7 7 4 5 4 3 1 1 2 4 3 5 6 5 2 4 3 3 4 4
5 9 8 4 17 7 4 14 15 8 10 6 17 15 15 12 12 14 14 13 14 13 12 10 12 13 12 9 7 7 6 6 5 5 3 3 2 3 4 4 6 6 1 1 1 4 5 2 2
6 9 3 3 3 5 8 9 3 4 5 2 12 14 14 13 13 11 12 12 13 13 12 9 11 13 12 10 7 7 7 6 6 4 4 2 1 3 4 5 5 6 5 5 5 4 3 4 2
7 8 8 7 4 1 4 2 7 7 5 5 6 13 13 14 13 13 12 13 13 13 12 10 10 13 11 10 8 8 7 6 5 5 4 2 1 4 5 5 5 5 6 6 5 5 5 2 3
9 9 12 3 6 2 0 7 5 4 3 2 4 9 15 16 15 14 13 12 12 12 12 12 9 11 11 8 8 6 7 6 5 4 4 2 2 3 4 5 5 6 5 5 6 6 5 6 7
Wind_Direction
200 226 237 251 241 232 258 254 246 56 68 91 73 54 91 34 4 99 180 121 124 131 130 127 124 123 120 113 110 106 101 97 93 89 86 83 82 78 70 68 66 66 69 69 66 60 53 48 36
220 227 229 274 239 251 249 251 63 68 97 82 76 94 65 66 78 123 130 139 135 127 141 133 124 127 122 122 116 114 104 100 94 89 85 83 80 76 69 66 68 69 73 74 69 60 51 44 32
256 253 243 228 234 248 263 67 106 118 123 106 78 68 63 108 120 135 118 107 126 128 122 121 125 130 128 114 114 100 97 96 94 90 88 85 82 75 70 67 74 77 76 73 65 54 43 33 23
232 217 253 259 250 239 250 187 121 130 125 107 120 107 107 33 105 124 130 129 126 102 113 127 131 135 122 113 105 96 95 95 89 86 87 86 82 80 79 71 72 72 70 65 59 50 35 24 18
236 268 242 237 247 265 262 86 95 87 9 27 338 132 104 75 112 112 82 99 95 95 90 76 83 102 89 114 99 94 95 92 91 91 90 88 87 86 84 75 70 66 62 58 52 48 34 16 4
223 228 253 240 244 240 217 107 103 107 172 142 346 129 112 119 111 85 86 87 99 112 109 108 114 140 133 113 94 97 97 93 94 99 97 95 94 95 93 85 75 67 57 44 41 33 11 353 343
251 245 244 256 263 331 260 130 122 138 171 187 122 72 271 143 100 97 92 104 100 79 114 113 183 142 101 93 100 103 103 102 98 96 101 113 116 115 107 98 85 69 54 36 20 7 338 313 332
242 259 270 270 267 222 17 69 124 98 174 135 140 159 173 103 107 107 112 107 93 90 121 172 102 141 115 119 118 118 110 105 117 123 136 150 155 155 147 131 104 91 63 26 353 334 309 300 308
238 260 264 262 273 71 42 31 295 191 168 81 94 68 340 114 112 124 120 102 97 106 185 146 155 141 127 123 122 120 130 136 133 152 168 164 202 177 158 137 137 144 154 230 270 282 295 313 290
240 236 256 36 33 92 121 178 243 88 17 89 108 126 239 113 130 137 132 128 165 176 169 128 136 152 150 126 153 147 144 159 181 186 178 201 92 92 105 154 170 174 200 221 236 269 290 288 4
225 253 274 46 53 340 287 177 181 126 95 45 324 151 123 134 146 137 138 137 141 126 124 126 133 155 157 145 160 149 132 113 101 112 29 83 80 50 132 111 217 215 209 336 215 278 216 6 13
241 240 258 144 163 225 211 98 92 98 149 132 228 177 134 137 152 150 117 119 118 129 136 147 144 97 107 136 125 135 111 135 147 138 160 123 85 41 25 19 17 4 337 20 351 340 21 16 357
235 261 246 216 211 186 62 83 133 146 181 168 225 148 129 155 137 125 120 123 133 127 137 116 101 115 130 97 81 76 90 56 65 60 39 43 73 91 37 23 306 293 343 20 19 24 22 16 1
219 264 32 241 208 100 86 228 147 163 181 138 139 135 137 153 134 156 134 133 132 139 119 119 124 152 108 86 94 94 55 66 51 109 91 117 125 95 37 30 23 13 42 18 18 17 12 351 344
268 271 101 81 151 158 204 172 97 109 125 147 136 137 141 138 142 139 119 133 123 122 130 129 155 126 105 112 107 89 112 34 47 54 45 40 52 38 50 41 14 25 21 27 21 359 337 336 333
246 220 169 288 273 162 198 118 143 129 151 150 140 135 145 144 139 138 129 142 129 132 135 155 120 118 80 74 66 73 153 82 92 66 79 80 97 116 140 58 45 19 337 311 4 289 6 347 340
225 167 156 184 249 171 235 134 152 157 159 152 145 158 153 159 160 145 152 152 139 141 146 140 139 112 120 138 140 103 115 123 139 135 104 126 67 68 26 81 53 14 322 357 9 19 359 338 328
95 279 175 209 209 195 216 140 167 184 111 269 152 157 147 163 159 151 163 154 141 139 151 142 139 125 172 171 115 141 138 138 103 77 74 32 77 52 27 61 88 229 321 9 6 342 305 284 339
240 226 214 194 171 230 138 151 175 198 166 169 164 148 149 163 146 151 168 154 139 143 154 157 149 163 202 152 147 156 146 108 97 84 71 63 26 66 48 34 8 355 11 1 339 306 333 335 332
259 259 186 129 170 224 199 174 178 197 196 172 176 167 165 176 168 163 178 158 155 153 157 163 161 184 210 132 95 78 102 82 104 117 115 89 60 33 25 21 353 5 349 329 330 351 319 323 5
257 247 217 156 196 218 355 279 177 185 203 201 194 188 174 175 157 171 175 162 156 152 147 166 165 185 97 107 101 90 100 132 149 126 105 63 65 27 9 7 0 341 316 328 329 322 309 10 353
0 344 201 168 315 211 178 181 47 308 211 199 199 199 188 170 158 167 179 179 140 144 154 165 169 104 104 125 87 85 79 90 80 65 61 28 44 25 8 10 21 3 344 333 313 332 359 357 339
168 273 263 251 228 279 327 324 201 243 260 212 224 210 184 159 168 168 178 133 137 151 166 139 110 112 123 94 112 97 100 104 83 61 43 43 22 29 18 20 14 343 328 310 312 311 30 39 30
175 239 259 275 266 174 214 199 239 209 241 298 192 205 208 175 161 171 142 157 177 170 126 118 122 129 110 90 79 84 84 84 76 69 48 41 356 6 19 23 334 326 312 315 21 55 54 38 21
210 227 242 330 312 279 255 168 222 209 205 141 217 191 187 172 171 171 159 175 147 131 122 130 138 133 122 115 111 109 109 111 113 90 87 15 14 357 12 347 336 326 323 54 39 44 15 34 320
258 254 238 162 294 298 10 226 335 149 193 179 207 168 170 175 164 165 162 140 145 141 150 169 149 149 138 131 129 129 132 124 116 118 94 73 35 331 327 343 324 308 45 11 37 19 313 263 250
295 246 286 335 197 251 287 286 285 85 103 135 156 166 168 175 175 178 163 155 154 166 173 174 165 154 147 148 136 133 131 106 129 139 113 80 20 306 351 339 313 309 244 193 220 242 248 271 316
270 334 282 283 316 285 291 301 306 134 122 217 163 166 172 177 183 184 171 164 164 171 171 176 177 157 157 146 149 158 142 156 148 142 126 91 311 317 311 316 314 321 309 222 240 267 292 299 258
183 238 246 289 259 296 314 313 35 34 33 151 225 169 174 178 190 187 185 177 170 168 171 183 187 159 160 153 178 158 159 157 170 161 141 124 317 299 317 315 313 308 306 312 330 318 302 272 286
316 289 209 170 269 159 97 279 35 79 52 39 227 198 177 181 190 191 191 187 171 168 177 185 187 171 162 174 170 166 165 178 181 173 140 151 272 304 313 305 298 284 293 7 343 328 328 6 21